Вернуться в каталог

TELSTAR 3D R/B

PAM-D

АктивенGTO
NORAD 15837·ROCKET BODY·🇺🇸 United States

Запущен Jun 17, 1985 с Cape Canaveral Space Force Station

Loading…

TLE

УстаревающийSource: Space-Track

Эпоха: Sep 14, 2026, 10:03 UTC

1 15837U 85048H   26257.41908698 -.00000021  00000-0  46250-3 0  9990
2 15837  25.5991 272.0215 7197601 109.1353 336.2104  2.29320759286205

Отслеживайте TELSTAR 3D R/B в реальном времени с AllMySat

Download on the App Store